Location: Unspecified
(0.0000°N, 0.0000°E)
Time: 04:33:02
(UTC+00:00)

Vanguard 3 - Pass Details

Date: 17 April 2021
Orbit: 507 x 3262 km, 33.4° (Epoch: 17 May)

Event Time Altitude Azimuth Distance (km) Brightness Sun altitude
Rises 21:13:57 0° 231° (SW) 6,588 12.1 -47.5°
Reaches altitude 10° 21:18:58 10° 228° (SW) 5,202 11.4 -48.7°
Enters shadow 21:26:19 32° 221° (SW) 3,085 10.0 -50.5°
